• In Uzbekistan
  • List of Countries
  • For 7 days
  • Water Temperature
  • Satellite Maps
  • Weather Map
  • Weather Widgets
  • user-avatar
    Login

    Hourly Weather Novokubanka

    Today, 17 December, Sunday

    Time Temperature Precipitation Wind Pressure Humidity
    00:00 +8°C° 0.1 mm 4 mps 754 mmHg 80%
    01:00 +8°C° 0.1 mm 5 mps 755 mmHg 79%
    02:00 +8°C° 0 mm 4 mps 755 mmHg 80%
    03:00 +7°C° 0.2 mm 4 mps 755 mmHg 79%
    04:00 +7°C° 0.2 mm 5 mps 755 mmHg 78%
    05:00 +5°C° 0.2 mm 6 mps 756 mmHg 77%
    06:00 +5°C° 0.3 mm 6 mps 756 mmHg 77%
    07:00 +4°C° 0.3 mm 6 mps 756 mmHg 77%
    08:00 +4°C° 0 mm 6 mps 757 mmHg 75%
    09:00 +4°C° 0.1 mm 6 mps 757 mmHg 74%
    10:00 +4°C° 0.1 mm 6 mps 757 mmHg 72%
    11:00 +4°C° 0.1 mm 6 mps 757 mmHg 71%
    12:00 +4°C° 0.4 mm 6 mps 757 mmHg 71%
    13:00 +4°C° 0.4 mm 6 mps 757 mmHg 71%
    14:00 +4°C° 0 mm 6 mps 757 mmHg 72%
    15:00 +4°C° 0.5 mm 6 mps 757 mmHg 73%
    16:00 +4°C° 0.5 mm 7 mps 757 mmHg 74%
    17:00 +3°C° 0.5 mm 7 mps 757 mmHg 76%
    18:00 +2°C° 0.3 mm 8 mps 757 mmHg 77%
    19:00 +2°C° 0.3 mm 8 mps 756 mmHg 78%
    20:00 +2°C° 0.3 mm 8 mps 756 mmHg 78%
    21:00 +2°C° 0.5 mm 8 mps 756 mmHg 79%
    22:00 +1°C° 0.5 mm 8 mps 756 mmHg 80%
    23:00 +2°C° 0.5 mm 7 mps 756 mmHg 81%

    Tomorrow, 18 December, Monday

    Time Temperature Precipitation Wind Pressure Humidity
    00:00 +1°C° 0.7 mm 8 mps 756 mmHg 82%
    01:00 +1°C° 0.7 mm 8 mps 756 mmHg 83%
    02:00 0°C° 0.7 mm 8 mps 756 mmHg 84%
    03:00 0°C° 0.3 mm 8 mps 756 mmHg 85%
    04:00 -1°C° 0.3 mm 8 mps 756 mmHg 85%
    05:00 -1°C° 0.3 mm 8 mps 756 mmHg 86%
    06:00 -1°C° 0.1 mm 8 mps 756 mmHg 86%
    07:00 -1°C° 0.1 mm 7 mps 756 mmHg 86%
    08:00 -1°C° 0.1 mm 7 mps 757 mmHg 85%
    09:00 -1°C° 0 mm 7 mps 757 mmHg 84%
    10:00 -1°C° 0 mm 7 mps 758 mmHg 83%
    11:00 -1°C° 0 mm 7 mps 759 mmHg 82%
    12:00 -1°C° 0 mm 7 mps 759 mmHg 82%
    13:00 -1°C° 0 mm 7 mps 759 mmHg 81%
    14:00 -1°C° 0 mm 7 mps 759 mmHg 80%
    15:00 -1°C° 0 mm 7 mps 760 mmHg 81%
    16:00 -2°C° 0 mm 7 mps 760 mmHg 81%
    17:00 -2°C° 0 mm 7 mps 761 mmHg 81%
    18:00 -2°C° 0 mm 6 mps 761 mmHg 82%
    19:00 -2°C° 0 mm 6 mps 761 mmHg 82%
    20:00 -3°C° 0 mm 6 mps 761 mmHg 83%
    21:00 -3°C° 0 mm 6 mps 762 mmHg 84%
    22:00 -2°C° 0 mm 5 mps 762 mmHg 85%
    23:00 -4°C° 0 mm 5 mps 762 mmHg 86%

    Day after tomorrow, 19 December, Tuesday

    Time Temperature Precipitation Wind Pressure Humidity
    00:00 -4°C° 0 mm 5 mps 762 mmHg 85%
    01:00 -4°C° 0 mm 5 mps 763 mmHg 85%
    02:00 -4°C° 0 mm 5 mps 763 mmHg 84%
    03:00 -4°C° 0 mm 5 mps 763 mmHg 84%
    04:00 -3°C° 0 mm 4 mps 763 mmHg 84%
    05:00 -3°C° 0 mm 4 mps 764 mmHg 83%
    06:00 -3°C° 0 mm 4 mps 764 mmHg 83%
    07:00 -4°C° 0 mm 5 mps 764 mmHg 83%
    08:00 -4°C° 0 mm 5 mps 765 mmHg 82%
    09:00 -4°C° 0 mm 5 mps 765 mmHg 79%
    10:00 -2°C° 0 mm 5 mps 766 mmHg 75%
    11:00 -2°C° 0 mm 6 mps 766 mmHg 71%
    12:00 -1°C° 0 mm 5 mps 766 mmHg 72%
    13:00 -1°C° 0 mm 5 mps 766 mmHg 72%
    14:00 -1°C° 0 mm 5 mps 766 mmHg 72%
    15:00 -1°C° 0 mm 5 mps 766 mmHg 76%
    16:00 -2°C° 0 mm 4 mps 767 mmHg 80%
    17:00 -2°C° 0 mm 3 mps 767 mmHg 84%
    18:00 -2°C° 0 mm 3 mps 767 mmHg 84%
    19:00 -3°C° 0 mm 4 mps 767 mmHg 84%
    20:00 -4°C° 0 mm 4 mps 768 mmHg 84%
    21:00 -4°C° 0 mm 4 mps 768 mmHg 83%
    22:00 -4°C° 0 mm 4 mps 768 mmHg 82%
    23:00 -4°C° 0 mm 4 mps 769 mmHg 81%

    20 December, Wednesday

    Time Temperature Precipitation Wind Pressure Humidity
    00:00 -4°C° 0 mm 4 mps 769 mmHg 81%
    01:00 -4°C° 0 mm 4 mps 769 mmHg 80%
    02:00 -4°C° 0 mm 4 mps 769 mmHg 80%
    03:00 -5°C° 0 mm 3 mps 769 mmHg 80%
    04:00 -5°C° 0 mm 3 mps 769 mmHg 79%
    05:00 -5°C° 0 mm 3 mps 769 mmHg 79%
    06:00 -5°C° 0 mm 3 mps 769 mmHg 78%
    07:00 -5°C° 0 mm 3 mps 769 mmHg 78%
    08:00 -5°C° 0 mm 3 mps 769 mmHg 77%
    09:00 -4°C° 0 mm 3 mps 769 mmHg 72%
    10:00 -2°C° 0 mm 3 mps 769 mmHg 67%
    11:00 -1°C° 0 mm 3 mps 769 mmHg 62%
    12:00 -1°C° 0 mm 3 mps 769 mmHg 61%
    13:00 -2°C° 0 mm 4 mps 769 mmHg 59%
    14:00 -1°C° 0 mm 4 mps 769 mmHg 58%
    15:00 -1°C° 0 mm 3 mps 769 mmHg 63%
    16:00 -2°C° 0 mm 3 mps 769 mmHg 69%
    17:00 -3°C° 0 mm 2 mps 769 mmHg 74%
    18:00 -3°C° 0 mm 2 mps 769 mmHg 76%
    19:00 -3°C° 0 mm 2 mps 769 mmHg 79%
    20:00 -3°C° 0 mm 2 mps 769 mmHg 81%
    21:00 -3°C° 0 mm 2 mps 769 mmHg 82%
    22:00 -4°C° 0 mm 3 mps 769 mmHg 83%
    23:00 -4°C° 0 mm 3 mps 769 mmHg 85%

    21 December, Thursday

    Time Temperature Precipitation Wind Pressure Humidity
    00:00 -4°C° 0 mm 3 mps 769 mmHg 84%
    01:00 -4°C° 0 mm 3 mps 769 mmHg 83%
    02:00 -4°C° 0 mm 3 mps 769 mmHg 82%
    03:00 -4°C° 0 mm 3 mps 769 mmHg 80%
    04:00 -4°C° 0 mm 3 mps 769 mmHg 77%
    05:00 -4°C° 0 mm 3 mps 769 mmHg 75%
    06:00 -4°C° 0 mm 3 mps 769 mmHg 75%
    07:00 -4°C° 0 mm 3 mps 769 mmHg 75%
    08:00 -4°C° 0 mm 3 mps 769 mmHg 76%
    09:00 -4°C° 0 mm 3 mps 769 mmHg 72%
    10:00 -3°C° 0 mm 4 mps 769 mmHg 68%
    11:00 -2°C° 0 mm 4 mps 769 mmHg 63%
    12:00 -1°C° 0 mm 4 mps 768 mmHg 63%
    13:00 -1°C° 0 mm 4 mps 768 mmHg 62%
    14:00 -1°C° 0 mm 4 mps 767 mmHg 62%
    15:00 -1°C° 0 mm 3 mps 767 mmHg 66%
    16:00 -1°C° 0 mm 3 mps 767 mmHg 71%
    17:00 -2°C° 0 mm 3 mps 767 mmHg 75%
    18:00 -4°C° 0 mm 3 mps 766 mmHg 77%
    19:00 -4°C° 0 mm 3 mps 766 mmHg 78%
    20:00 -4°C° 0 mm 3 mps 766 mmHg 80%
    21:00 -4°C° 0 mm 3 mps 766 mmHg 79%
    22:00 -4°C° 0 mm 3 mps 766 mmHg 79%
    23:00 -4°C° 0 mm 3 mps 766 mmHg 78%

    22 December, Friday

    Time Temperature Precipitation Wind Pressure Humidity
    00:00 -4°C° 0 mm 3 mps 765 mmHg 77%
    01:00 -4°C° 0 mm 3 mps 765 mmHg 77%
    02:00 -4°C° 0 mm 3 mps 764 mmHg 76%
    03:00 -4°C° 0 mm 3 mps 764 mmHg 75%
    04:00 -4°C° 0 mm 2 mps 764 mmHg 75%
    05:00 -4°C° 0 mm 2 mps 763 mmHg 75%
    06:00 -4°C° 0 mm 2 mps 763 mmHg 74%
    07:00 -4°C° 0 mm 2 mps 763 mmHg 74%
    08:00 -5°C° 0 mm 3 mps 763 mmHg 74%
    09:00 -4°C° 0 mm 3 mps 763 mmHg 69%
    10:00 -2°C° 0 mm 3 mps 763 mmHg 64%
    11:00 -2°C° 0 mm 4 mps 762 mmHg 59%
    12:00 -1°C° 0 mm 4 mps 762 mmHg 57%
    13:00 -1°C° 0 mm 4 mps 761 mmHg 56%
    14:00 0°C° 0 mm 4 mps 760 mmHg 54%
    15:00 -1°C° 0 mm 4 mps 760 mmHg 59%
    16:00 -2°C° 0 mm 4 mps 760 mmHg 64%
    17:00 -2°C° 0 mm 3 mps 760 mmHg 68%
    18:00 -2°C° 0 mm 4 mps 759 mmHg 71%
    19:00 -2°C° 0 mm 4 mps 759 mmHg 74%
    20:00 -2°C° 0 mm 4 mps 759 mmHg 77%
    21:00 -2°C° 0.1 mm 4 mps 758 mmHg 81%
    22:00 -2°C° 0.1 mm 4 mps 758 mmHg 84%
    23:00 -2°C° 0.1 mm 4 mps 757 mmHg 88%
    Show more

    XHprof extension not loaded